| time (UTC) | temp F | wind direction | speed MPH | gust MPH | rain 1hr in | rain 24hr in | rain mn in | humidity % | barometer mb |
| 20260905154313 | 75 | 165 | 0.0 | 2.0 | 0.00 | 0.13 | 0.13 | 87 | 1014.2 |
| 20260905153120 | 75 | 240 | 0.0 | 3.0 | 0.00 | 0.13 | 0.13 | 87 | 1014.0 |
| 20260905151912 | 75 | 281 | 1.0 | 8.0 | 0.00 | 0.13 | 0.13 | 86 | 1014.1 |
| 20260905145435 | 75 | 108 | 0.0 | 8.0 | 0.00 | 0.13 | 0.13 | 88 | 1013.8 |
| 20260905143118 | 73 | 257 | 0.0 | 7.0 | 0.00 | 0.13 | 0.13 | 91 | 1013.8 |
| 20260905134252 | 71 | 122 | 1.0 | 11.0 | 0.00 | 0.13 | 0.13 | 92 | 1013.5 |
| 20260905133047 | 70 | 114 | 1.0 | 11.0 | 0.00 | 0.13 | 0.13 | 92 | 1013.4 |
| 20260905131916 | 70 | 248 | 1.0 | 9.0 | 0.09 | 0.13 | 0.13 | 92 | 1013.1 |
| 20260905130650 | 70 | 198 | 3.0 | 15.0 | 0.66 | 0.06 | 0.09 | 92 | 1013.8 |
| 20260905124304 | 70 | 239 | 1.0 | 8.0 | 0.00 | 0.04 | 0.04 | 92 | 1013.0 |
| 20260905123028 | 70 | 107 | 1.0 | 6.0 | 0.00 | 0.04 | 0.04 | 92 | 1013.1 |
| 20260905121818 | 70 | 138 | 1.0 | 6.0 | 0.00 | 0.04 | 0.04 | 92 | 1013.1 |
| 20260905112907 | 70 | 91 | 0.0 | 3.0 | 0.00 | 0.04 | 0.04 | 92 | 1013.3 |
| 20260905111656 | 70 | 68 | 1.0 | 4.0 | 0.00 | 0.04 | 0.04 | 92 | 1013.0 |
| 20260905110511 | 70 | 298 | 0.0 | 7.0 | 0.00 | 0.04 | 0.04 | 92 | 1012.8 |
| 20260905100436 | 70 | 158 | 0.0 | 4.0 | 0.00 | 0.04 | 0.04 | 91 | 1013.3 |
| 20260905095253 | 70 | 166 | 0.0 | 6.0 | 0.00 | 0.04 | 0.04 | 91 | 1013.2 |
| 20260905094104 | 70 | 111 | 1.0 | 6.0 | 0.00 | 0.04 | 0.04 | 91 | 1013.3 |
| 20260905092915 | 70 | 143 | 1.0 | 6.0 | 0.00 | 0.04 | 0.04 | 90 | 1013.6 |
| 20260905084050 | 73 | 173 | 1.0 | 11.0 | 0.00 | 0.00 | 0.00 | 90 | 1013.4 |
| 20260905075234 | 75 | 36 | 1.0 | 9.0 | 0.00 | 0.00 | 0.00 | 93 | 1012.9 |
| 20260905074041 | 75 | 144 | 0.0 | 3.0 | 0.00 | 0.00 | 0.00 | 93 | 1012.1 |
| 20260905065248 | 74 | 144 | 0.0 | 1.0 | 0.00 | 0.00 | 0.00 | 93 | 1011.9 |
| 20260905064014 | 75 | 144 | 0.0 | 1.0 | 0.00 | 0.00 | 0.00 | 93 | 1011.7 |
| 20260905062838 | 74 | 144 | 0.0 | 0.0 | 0.00 | 0.00 | 0.00 | 93 | 1011.7 |
| 20260905054103 | 76 | 144 | 0.0 | 3.0 | 0.00 | 0.00 | 0.00 | 93 | 1012.4 |
| 20260905051721 | 76 | 145 | 0.0 | 3.0 | 0.00 | 0.00 | 0.00 | 93 | 1012.4 |
| 20260905045357 | 76 | 145 | 0.0 | 1.0 | 0.00 | 0.00 | 0.00 | 93 | 1012.6 |
| 20260905042906 | 76 | 145 | 0.0 | 1.0 | 0.00 | 0.00 | 0.00 | 93 | 1012.9 |
| 20260905041652 | 76 | 145 | 0.0 | 0.0 | 0.00 | 0.00 | 0.00 | 93 | 1013.1 |
| 20260905035227 | 77 | 145 | 0.0 | 0.0 | 0.00 | 0.00 | 0.00 | 92 | 1013.3 |
| 20260905034033 | 76 | 145 | 0.0 | 0.0 | 0.00 | 0.00 | 0.00 | 92 | 1013.5 |
| 20260905032811 | 77 | 145 | 0.0 | 0.0 | 0.00 | 0.00 | 0.00 | 93 | 1013.6 |
| 20260905023946 | 77 | 145 | 0.0 | 0.0 | 0.00 | 0.00 | 0.00 | 92 | 1013.4 |
| 20260905022804 | 77 | 145 | 0.0 | 0.0 | 0.00 | 0.00 | 0.00 | 92 | 1013.3 |
| 20260905021625 | 78 | 145 | 0.0 | 0.0 | 0.00 | 0.00 | 0.00 | 92 | 1013.3 |
| 20260905020424 | 78 | 145 | 0.0 | 1.0 | 0.00 | 0.00 | 0.00 | 92 | 1013.2 |
| 20260905014018 | 78 | 145 | 0.0 | 1.0 | 0.00 | 0.00 | 0.00 | 92 | 1013.0 |
| 20260905011556 | 78 | 145 | 0.0 | 0.0 | 0.00 | 0.00 | 0.00 | 91 | 1013.0 |
| 20260905002805 | 79 | 145 | 0.0 | 0.0 | 0.00 | 0.00 | 0.00 | 90 | 1012.7 |
| 20260904230205 | 84 | 157 | 0.0 | 0.0 | 0.00 | 0.00 | 0.00 | 81 | 1012.6 |
| 20260904225020 | 84 | 155 | 0.0 | 4.0 | 0.00 | 0.00 | 0.00 | 80 | 1012.5 |
| 20260904212605 | 86 | 113 | 1.0 | 9.0 | 0.00 | 0.01 | 0.00 | 76 | 1013.0 |
| 20260904210139 | 86 | 151 | 0.0 | 4.0 | 0.00 | 0.01 | 0.00 | 77 | 1013.2 |
| 20260904201204 | 82 | 150 | 1.0 | 11.0 | 0.00 | 0.01 | 0.00 | 79 | 1012.2 |
| 20260904194832 | 82 | 206 | 3.0 | 8.0 | 0.00 | 0.01 | 0.00 | 79 | 1012.6 |
| 20260904193619 | 84 | 187 | 1.0 | 8.0 | 0.00 | 0.01 | 0.00 | 73 | 1013.7 |
| 20260904191112 | 83 | 108 | 4.0 | 14.0 | 0.00 | 0.01 | 0.00 | 75 | 1014.4 |
| 20260904181116 | 81 | 142 | 3.0 | 12.0 | 0.00 | 0.01 | 0.00 | 76 | 1016.2 |
| 20260904175853 | 81 | 81 | 5.0 | 18.0 | 0.00 | 0.01 | 0.00 | 74 | 1016.4 |
| 20260904165749 | 85 | 61 | 5.0 | 19.0 | 0.00 | 0.01 | 0.00 | 76 | 1015.6 |
| 20260904163320 | 90 | 355 | 3.0 | 11.0 | 0.00 | 0.01 | 0.00 | 68 | 1015.2 |
| 20260904162129 | 89 | 16 | 1.0 | 7.0 | 0.00 | 0.01 | 0.00 | 71 | 1015.2 |
| 20260904160958 | 88 | 337 | 3.0 | 11.0 | 0.00 | 0.01 | 0.00 | 74 | 1015.3 |
| 20260904155737 | 89 | 355 | 3.0 | 11.0 | 0.00 | 0.01 | 0.00 | 69 | 1015.3 |